Montgomery, AL

3:56 PM CDT on March 25, 2017 (GMT -0500)
Montgomery Regional

Weather History for KMGM - June, 2014

Change the Weather History Date:

Thursday, June 5, 2014

  Actual Average Record
Temperature  
Mean Temperature 81 °F 77 °F  
Max Temperature 92 °F 88 °F 103 °F (1985)
Min Temperature 70 °F 66 °F 53 °F (1954)
Cooling Degree Days 16 12  
Month to date cooling degree days 68 59  
Year to date cooling degree days 434 398  
Since 1 June cooling degree days 68 59  
Growing Degree Days 30 (Base 50)    
Moisture  
Dew Point 69 °F    
Average Humidity 71    
Maximum Humidity 93    
Minimum Humidity 49    
Precipitation  
Precipitation 0.00 in 0.12 in 1.72 in (1886)
Month to date precipitation 0.79 0.57  
Year to date precipitation 29.68 24.01  
Sea Level Pressure  
Sea Level Pressure 29.91 in    
Wind  
Wind Speed 4 mph (SW)    
Max Wind Speed 14 mph    
Max Gust Speed 20 mph    
Visibility 10 miles    
Events      
T = Trace of Precipitation, MM = Missing Value Source: NWS Daily Summary

Daily Weather History Graph

Daily Weather History Graph

Search for Another Location

Airport or City:

Trip Planner

Search our weather history database for the weather conditions in past years. The results will help you decide how hot, cold, wet, or windy it might be!

Date:

Astronomy

Jun. 05, 2014 Rise Set
Actual Time 5:38 AM CDT 7:49 PM CDT
Civil Twilight 5:10 AM CDT 8:17 PM CDT
Nautical Twilight 4:36 AM CDT 8:52 PM CDT
Astronomical Twilight 3:59 AM CDT 9:29 PM CDT
Moon 12:35 PM CDT (6/5) 12:34 AM CDT (6/5)
Length of Visible Light 15h 07m
Length of Day
14h 10m
Waxing Crescent, 49% of the Moon is Illuminated
Jun 5
Waxing Crescent
Jun 5
First Quarter
Jun 12
Full
Jun 19
Last Quarter
Jun 27
New

Hourly Weather History & Observations

Time (CDT) Temp. Heat Index Dew Point Humidity Pressure Visibility Wind Dir Wind Speed Gust Speed Precip Events Conditions
12:53 AM 75.0 °F - 69.1 °F 82% 29.92 in 10.0 mi SSW 4.6 mph - N/A   Clear
1:53 AM 73.9 °F - 68.0 °F 82% 29.94 in 10.0 mi SW 3.5 mph - N/A   Clear
2:53 AM 72.0 °F - 68.0 °F 87% 29.93 in 10.0 mi Calm Calm - N/A   Clear
3:53 AM 72.0 °F - 68.0 °F 87% 29.91 in 10.0 mi Calm Calm - N/A   Clear
4:53 AM 70.0 °F - 66.9 °F 90% 29.93 in 10.0 mi Calm Calm - N/A   Clear
5:53 AM 70.0 °F - 66.9 °F 90% 29.94 in 9.0 mi SSW 3.5 mph - N/A   Clear
6:53 AM 72.0 °F - 69.1 °F 91% 29.95 in 10.0 mi Calm Calm - N/A   Clear
7:53 AM 75.9 °F - 70.0 °F 82% 29.96 in 10.0 mi WSW 4.6 mph - N/A   Clear
8:53 AM 80.1 °F 83.6 °F 71.1 °F 74% 29.96 in 10.0 mi West 5.8 mph - N/A   Clear
9:53 AM 82.9 °F 86.5 °F 69.1 °F 63% 29.94 in 10.0 mi West 3.5 mph - N/A   Clear
10:53 AM 84.9 °F 88.8 °F 69.1 °F 59% 29.92 in 10.0 mi WSW 3.5 mph - N/A   Clear
11:53 AM 87.1 °F 90.6 °F 68.0 °F 53% 29.91 in 10.0 mi SSW 5.8 mph - N/A   Clear
12:53 PM 89.1 °F 92.9 °F 68.0 °F 50% 29.90 in 10.0 mi Variable 3.5 mph - N/A   Clear
1:53 PM 88.0 °F 91.4 °F 68.0 °F 51% 29.90 in 10.0 mi WSW 10.4 mph - N/A   Partly Cloudy
2:53 PM 91.0 °F 96.6 °F 70.0 °F 50% 29.88 in 10.0 mi SSW 6.9 mph - N/A   Partly Cloudy
3:53 PM 90.0 °F 93.6 °F 68.0 °F 48% 29.87 in 10.0 mi WSW 11.5 mph - N/A   Partly Cloudy
4:53 PM 90.0 °F 94.5 °F 69.1 °F 50% 29.90 in 10.0 mi West 15.0 mph - N/A   Mostly Cloudy
5:53 PM 89.1 °F 92.9 °F 68.0 °F 50% 29.91 in 10.0 mi West 8.1 mph - N/A   Clear
6:53 PM 87.1 °F 92.0 °F 70.0 °F 57% 29.90 in 10.0 mi WSW 3.5 mph - N/A   Clear
7:53 PM 82.0 °F 86.3 °F 71.1 °F 69% 29.86 in 10.0 mi Calm Calm - N/A   Clear
8:53 PM 81.0 °F 84.4 °F 70.0 °F 69% 29.83 in 10.0 mi South 8.1 mph - N/A   Clear
9:53 PM 78.1 °F - 71.1 °F 79% 29.87 in 10.0 mi Calm Calm - N/A   Clear
10:53 PM 77.0 °F - 71.1 °F 82% 29.90 in 10.0 mi WSW 4.6 mph - N/A   Clear
11:53 PM 77.0 °F - 70.0 °F 79% 29.92 in 10.0 mi Calm Calm - N/A   Clear